DW3435 Weather Reports


Display with metric or nautical units.
time (UTC)temp
F
wind
direction
speed
MPH
gust
MPH
rain 1hr
in
rain 24hr
in
rain mn
in
humidity
%
barometer
mb
20180716143746 79 229 0.0 6.0 0.00 0.00 0.00 86 1015.6
20180716142240 78 204 1.0 5.0 0.00 0.00 0.00 88 1015.8
20180716140737 78 216 0.0 6.0 0.00 0.00 0.00 89 1015.7
20180716135233 77 221 1.0 6.0 0.00 0.00 0.00 90 1015.6
20180716133730 77 207 1.0 6.0 0.00 0.00 0.00 90 1015.6
20180716132228 77 209 0.0 4.0 0.00 0.00 0.00 92 1015.5
20180716130726 76 206 0.0 6.0 0.00 0.00 0.00 95 1015.4
20180716125225 76 232 2.0 5.0 0.00 0.00 0.00 97 1015.3
20180716123724 75 209 2.0 4.0 0.00 0.00 0.00 97 1015.3
20180716122219 74 210 0.0 2.0 0.00 0.00 0.00 97 1015.3
20180716120717 74 209 0.0 0.0 0.00 0.00 0.00 98 1015.2
20180716115216 74 209 0.0 0.0 0.00 0.00 0.00 98 1015.2
20180716113712 74 209 0.0 0.0 0.00 0.00 0.00 98 1015.0
20180716112211 74 209 0.0 0.0 0.00 0.00 0.00 98 1015.0
20180716110712 74 209 0.0 0.0 0.00 0.00 0.00 97 1014.9
20180716105209 74 209 0.0 0.0 0.00 0.00 0.00 97 1014.9
20180716103708 74 209 0.0 0.0 0.00 0.00 0.00 97 1014.8
20180716102213 74 209 0.0 0.0 0.00 0.00 0.00 97 1014.5
20180716100710 74 209 0.0 0.0 0.00 0.00 0.00 97 1014.4
20180716095208 74 209 0.0 0.0 0.00 0.00 0.00 97 1014.3
20180716093706 74 209 0.0 0.0 0.00 0.00 0.00 97 1014.4
20180716092205 74 209 0.0 0.0 0.00 0.00 0.00 97 1014.3
20180716090704 74 209 0.0 0.0 0.00 0.00 0.00 97 1014.3
20180716085207 74 209 0.0 0.0 0.00 0.00 0.00 97 1014.2
20180716083706 74 209 0.0 0.0 0.00 0.00 0.00 97 1014.2
20180716082205 74 209 0.0 0.0 0.00 0.00 0.00 96 1014.4
20180716080701 74 209 0.0 0.0 0.00 0.00 0.00 96 1014.5
20180716075158 74 209 0.0 0.0 0.00 0.00 0.00 96 1014.6
20180716073658 74 209 0.0 0.0 0.00 0.00 0.00 96 1014.6
20180716072156 74 209 0.0 0.0 0.00 0.00 0.00 96 1014.6
20180716070715 74 210 0.0 0.0 0.00 0.00 0.00 95 1014.8
20180716065155 75 209 0.0 0.0 0.00 0.00 0.00 95 1014.7
20180716063652 75 209 0.0 0.0 0.00 0.00 0.00 95 1014.7
20180716062156 75 210 0.0 0.0 0.00 0.00 0.00 95 1014.8
20180716060650 75 210 0.0 0.0 0.00 0.00 0.00 95 1014.8
20180716055152 75 209 0.0 0.0 0.00 0.00 0.00 95 1014.8
20180716053646 75 209 0.0 0.0 0.00 0.00 0.00 95 1014.9
20180716052145 76 210 0.0 0.0 0.00 0.00 0.00 95 1015.2
20180716050644 76 210 0.0 0.0 0.00 0.00 0.00 95 1015.4
20180716045142 76 209 0.0 0.0 0.00 0.00 0.00 95 1015.4
20180716043641 76 209 0.0 0.0 0.00 0.00 0.00 95 1015.5
20180716042145 76 209 0.0 0.0 0.00 0.00 0.00 95 1015.5
20180716040641 76 209 0.0 0.0 0.00 0.00 0.00 94 1015.5
20180716035140 76 209 0.0 0.0 0.00 0.00 0.00 94 1015.5
20180716033636 77 210 0.0 0.0 0.00 0.00 0.00 93 1015.4
20180716032134 77 209 0.0 0.0 0.00 0.00 0.00 93 1015.5
20180716030634 77 209 0.0 0.0 0.00 0.00 0.00 93 1015.5
20180716025137 77 209 0.0 0.0 0.00 0.00 0.00 92 1015.1
20180716023633 77 209 0.0 0.0 0.00 0.00 0.00 92 1015.0
20180716022137 78 209 0.0 0.0 0.00 0.00 0.00 92 1014.6
20180716020635 78 209 0.0 0.0 0.00 0.00 0.00 91 1014.6
20180716015132 78 209 0.0 0.0 0.00 0.00 0.00 90 1014.4
20180716013635 79 209 0.0 0.0 0.00 0.00 0.00 90 1014.3
20180716012131 79 209 0.0 0.0 0.00 0.00 0.00 89 1014.2
20180716010632 80 209 0.0 0.0 0.00 0.00 0.00 88 1014.1
20180716005135 80 209 0.0 0.0 0.00 0.00 0.00 86 1014.0
20180716003641 81 209 0.0 0.0 0.00 0.00 0.00 86 1013.7
20180716002128 82 209 0.0 0.0 0.00 0.00 0.00 84 1013.5
20180716000628 82 209 0.0 0.0 0.00 0.00 0.00 84 1013.4
20180715235127 82 209 0.0 0.0 0.00 0.00 0.00 82 1013.5
20180715233629 83 209 0.0 0.0 0.00 0.00 0.00 81 1013.4
20180715232127 83 209 0.0 0.0 0.00 0.00 0.00 80 1013.6
20180715230627 83 209 0.0 0.0 0.00 0.00 0.00 79 1013.9
20180715225126 84 209 0.0 0.0 0.00 0.00 0.00 82 1014.0
20180715223626 84 209 0.0 0.0 0.00 0.00 0.00 80 1014.2
20180715222124 85 209 0.0 0.0 0.00 0.00 0.00 77 1014.2
20180715220622 85 209 0.0 2.0 0.00 0.00 0.00 78 1014.2
20180715215123 85 222 0.0 6.0 0.00 0.00 0.00 75 1014.1
20180715213620 85 218 0.0 0.0 0.00 0.00 0.00 74 1014.2
20180715212121 86 218 0.0 0.0 0.00 0.00 0.00 76 1014.1
20180715210620 86 219 0.0 4.0 0.00 0.00 0.00 72 1014.0
20180715205122 86 219 1.0 3.0 0.00 0.00 0.00 72 1014.1
20180715203619 86 219 0.0 3.0 0.00 0.00 0.00 72 1014.0
20180715202119 86 78 0.0 0.0 0.00 0.00 0.00 72 1014.0
20180715200616 85 78 0.0 4.0 0.00 0.00 0.00 76 1014.2
20180715195114 85 78 0.0 4.0 0.00 0.00 0.00 74 1014.5
20180715193612 86 223 0.0 0.0 0.00 0.00 0.00 76 1015.0
20180715192115 86 224 0.0 0.0 0.00 0.00 0.00 75 1015.2
20180715190610 87 224 0.0 0.0 0.00 0.00 0.00 71 1015.1
20180715185111 88 223 0.0 2.0 0.00 0.00 0.00 66 1015.3
20180715183607 89 209 2.0 9.0 0.00 0.00 0.00 63 1015.2
20180715182106 89 225 3.0 7.0 0.00 0.00 0.00 63 1015.5
20180715180604 89 234 2.0 7.0 0.00 0.00 0.00 65 1015.5
20180715175102 89 227 4.0 9.0 0.00 0.00 0.00 65 1015.8
20180715173602 89 197 2.0 8.0 0.00 0.00 0.00 66 1016.0
20180715172056 88 243 1.0 4.0 0.00 0.00 0.00 67 1016.1
20180715170557 87 230 2.0 10.0 0.00 0.00 0.00 70 1016.2
20180715165056 87 209 3.0 9.0 0.00 0.00 0.00 67 1016.2
20180715163550 87 178 1.0 9.0 0.00 0.00 0.00 69 1016.4
20180715162047 86 199 0.0 7.0 0.00 0.00 0.00 74 1016.4
20180715160542 84 193 2.0 8.0 0.00 0.00 0.00 74 1016.6
20180715155042 83 205 2.0 8.0 0.00 0.00 0.00 75 1016.7
20180715153541 84 217 4.0 9.0 0.00 0.00 0.00 72 1016.8
20180715152038 84 231 0.0 8.0 0.00 0.00 0.00 77 1016.7
20180715150535 83 231 4.0 9.0 0.00 0.00 0.00 74 1016.7
20180715145033 82 224 2.0 7.0 0.00 0.00 0.00 75 1016.8